| time (UTC) | temp F | wind direction | speed MPH | gust MPH | rain 1hr in | rain 24hr in | rain mn in | humidity % | barometer mb |
| 20260506220537 | 58 | 355 | 0.0 | 0.0 | 0.00 | 0.38 | 0.26 | 42 | 1013.1 |
| 20260506220038 | 59 | 346 | 0.0 | 0.0 | 0.00 | 0.38 | 0.26 | 42 | 1013.2 |
| 20260506215538 | 59 | 341 | 0.0 | 0.0 | 0.00 | 0.39 | 0.26 | 42 | 1013.4 |
| 20260506215037 | 59 | 351 | 0.0 | 0.0 | 0.00 | 0.39 | 0.26 | 41 | 1013.2 |
| 20260506214536 | 59 | 5 | 0.0 | 0.0 | 0.00 | 0.39 | 0.26 | 41 | 1013.3 |
| 20260506214038 | 59 | 9 | 0.0 | 0.0 | 0.00 | 0.39 | 0.26 | 41 | 1013.2 |
| 20260506213635 | 59 | 345 | 0.0 | 0.0 | 0.00 | 0.39 | 0.26 | 40 | 1013.0 |
| 20260506213036 | 59 | 5 | 0.0 | 0.0 | 0.00 | 0.39 | 0.26 | 40 | 1012.5 |
| 20260506212536 | 59 | 360 | 0.0 | 0.0 | 0.00 | 0.39 | 0.26 | 41 | 1013.0 |
| 20260506212035 | 59 | 347 | 0.0 | 0.0 | 0.00 | 0.39 | 0.26 | 40 | 1012.9 |
| 20260506211535 | 59 | 355 | 0.0 | 0.0 | 0.00 | 0.39 | 0.26 | 39 | 1013.1 |
| 20260506211035 | 59 | 342 | 0.0 | 0.0 | 0.00 | 0.39 | 0.26 | 42 | 1013.2 |
| 20260506210537 | 59 | 342 | 0.0 | 0.0 | 0.00 | 0.39 | 0.26 | 40 | 1013.3 |
| 20260506210034 | 59 | 342 | 0.0 | 0.0 | 0.00 | 0.39 | 0.26 | 39 | 1013.6 |
| 20260506205535 | 59 | 336 | 0.0 | 0.0 | 0.00 | 0.39 | 0.26 | 40 | 1013.9 |
| 20260506205036 | 59 | 294 | 0.0 | 0.0 | 0.00 | 0.39 | 0.26 | 42 | 1013.9 |
| 20260506204534 | 60 | 360 | 0.0 | 0.0 | 0.00 | 0.39 | 0.26 | 39 | 1013.8 |
| 20260506204033 | 60 | 360 | 0.0 | 0.0 | 0.00 | 0.39 | 0.26 | 39 | 1013.6 |
| 20260506203533 | 60 | 348 | 0.0 | 0.0 | 0.00 | 0.39 | 0.26 | 43 | 1013.6 |
| 20260506203034 | 60 | 345 | 0.0 | 0.0 | 0.00 | 0.39 | 0.26 | 39 | 1013.6 |
| 20260506202533 | 60 | 360 | 0.0 | 0.0 | 0.00 | 0.39 | 0.26 | 40 | 1013.7 |
| 20260506202033 | 60 | 342 | 0.0 | 0.0 | 0.00 | 0.39 | 0.26 | 42 | 1013.7 |
| 20260506201543 | 60 | 350 | 0.0 | 0.0 | 0.00 | 0.39 | 0.26 | 40 | 1013.6 |
| 20260506201034 | 61 | 291 | 0.0 | 0.0 | 0.00 | 0.39 | 0.26 | 40 | 1013.7 |
| 20260506200532 | 60 | 306 | 0.0 | 0.0 | 0.00 | 0.39 | 0.26 | 40 | 1013.3 |
| 20260506200032 | 60 | 14 | 0.0 | 0.0 | 0.00 | 0.39 | 0.26 | 40 | 1013.4 |
| 20260506195533 | 60 | 338 | 0.0 | 0.0 | 0.00 | 0.39 | 0.26 | 38 | 1013.4 |
| 20260506195032 | 60 | 355 | 0.0 | 0.0 | 0.00 | 0.39 | 0.26 | 40 | 1013.5 |
| 20260506194539 | 60 | 21 | 0.0 | 0.0 | 0.00 | 0.39 | 0.26 | 40 | 1013.5 |
| 20260506194033 | 60 | 337 | 0.0 | 0.0 | 0.00 | 0.39 | 0.26 | 40 | 1013.5 |
| 20260506193535 | 61 | 336 | 0.0 | 0.0 | 0.00 | 0.39 | 0.26 | 40 | 1013.5 |
| 20260506193037 | 60 | 342 | 0.0 | 1.0 | 0.00 | 0.39 | 0.26 | 44 | 1013.6 |
| 20260506192531 | 60 | 329 | 0.0 | 1.0 | 0.00 | 0.39 | 0.26 | 41 | 1013.6 |
| 20260506192031 | 60 | 296 | 0.0 | 0.0 | 0.00 | 0.39 | 0.26 | 39 | 1013.7 |
| 20260506191531 | 60 | 294 | 0.0 | 0.0 | 0.00 | 0.39 | 0.26 | 42 | 1013.9 |
| 20260506191031 | 60 | 344 | 0.0 | 0.0 | 0.00 | 0.39 | 0.26 | 39 | 1013.9 |
| 20260506190530 | 60 | 360 | 0.0 | 0.0 | 0.00 | 0.39 | 0.26 | 39 | 1013.7 |
| 20260506190030 | 61 | 5 | 0.0 | 0.0 | 0.00 | 0.39 | 0.26 | 44 | 1013.6 |
| 20260506185530 | 61 | 302 | 0.0 | 0.0 | 0.00 | 0.39 | 0.26 | 44 | 1013.4 |
| 20260506185028 | 60 | 355 | 0.0 | 1.0 | 0.00 | 0.39 | 0.26 | 40 | 1013.5 |
| 20260506184527 | 60 | 360 | 0.0 | 0.0 | 0.00 | 0.39 | 0.26 | 45 | 1013.3 |
| 20260506184029 | 59 | 5 | 0.0 | 0.0 | 0.00 | 0.39 | 0.26 | 42 | 1013.5 |
| 20260506183526 | 59 | 344 | 0.0 | 0.0 | 0.00 | 0.39 | 0.26 | 42 | 1013.3 |
| 20260506183025 | 59 | 344 | 0.0 | 0.0 | 0.00 | 0.39 | 0.26 | 43 | 1013.1 |
| 20260506182526 | 59 | 298 | 0.0 | 0.0 | 0.00 | 0.39 | 0.26 | 47 | 1013.1 |
| 20260506182028 | 58 | 355 | 0.0 | 0.0 | 0.00 | 0.39 | 0.26 | 44 | 1013.2 |
| 20260506181524 | 58 | 338 | 0.0 | 0.0 | 0.00 | 0.39 | 0.26 | 45 | 1013.2 |
| 20260506181026 | 59 | 350 | 0.0 | 0.0 | 0.00 | 0.39 | 0.26 | 45 | 1013.3 |
| 20260506180525 | 59 | 284 | 0.0 | 0.0 | 0.00 | 0.39 | 0.26 | 45 | 1013.3 |
| 20260506180024 | 58 | 5 | 0.0 | 0.0 | 0.00 | 0.39 | 0.26 | 45 | 1013.0 |
| 20260506175526 | 59 | 26 | 0.0 | 0.0 | 0.00 | 0.39 | 0.26 | 47 | 1013.4 |
| 20260506175023 | 58 | 21 | 0.0 | 0.0 | 0.00 | 0.39 | 0.26 | 47 | 1013.4 |
| 20260506174523 | 58 | 10 | 0.0 | 0.0 | 0.00 | 0.39 | 0.26 | 45 | 1013.5 |
| 20260506174026 | 59 | 34 | 0.0 | 1.0 | 0.00 | 0.39 | 0.26 | 47 | 1013.5 |
| 20260506173525 | 59 | 348 | 0.0 | 1.0 | 0.00 | 0.39 | 0.26 | 50 | 1013.7 |
| 20260506173022 | 58 | 5 | 0.0 | 0.0 | 0.00 | 0.39 | 0.26 | 48 | 1013.7 |
| 20260506172521 | 57 | 24 | 0.0 | 0.0 | 0.00 | 0.39 | 0.26 | 52 | 1013.5 |
| 20260506172024 | 57 | 360 | 0.0 | 0.0 | 0.00 | 0.39 | 0.26 | 49 | 1013.4 |
| 20260506171522 | 57 | 346 | 0.0 | 0.0 | 0.00 | 0.39 | 0.26 | 48 | 1013.4 |
| 20260506171022 | 58 | 360 | 0.0 | 0.0 | 0.00 | 0.39 | 0.26 | 50 | 1013.3 |
| 20260506170521 | 57 | 28 | 0.0 | 1.0 | 0.00 | 0.39 | 0.26 | 48 | 1013.4 |
| 20260506170023 | 57 | 36 | 0.0 | 0.0 | 0.00 | 0.39 | 0.26 | 50 | 1013.5 |
| 20260506165523 | 56 | 355 | 0.0 | 0.0 | 0.00 | 0.39 | 0.26 | 50 | 1013.6 |
| 20260506165025 | 56 | 355 | 0.0 | 0.0 | 0.00 | 0.39 | 0.26 | 48 | 1013.5 |
| 20260506164524 | 57 | 5 | 0.0 | 1.0 | 0.00 | 0.39 | 0.26 | 50 | 1013.6 |
| 20260506164023 | 56 | 29 | 0.0 | 1.0 | 0.00 | 0.39 | 0.26 | 51 | 1013.8 |
| 20260506163523 | 56 | 355 | 0.0 | 0.0 | 0.00 | 0.39 | 0.26 | 51 | 1013.8 |
| 20260506163037 | 56 | 31 | 0.0 | 1.0 | 0.00 | 0.39 | 0.26 | 49 | 1013.8 |
| 20260506162524 | 55 | 46 | 0.0 | 1.0 | 0.00 | 0.39 | 0.26 | 52 | 1013.8 |
| 20260506162018 | 55 | 5 | 0.0 | 0.0 | 0.00 | 0.39 | 0.26 | 50 | 1013.9 |
| 20260506161519 | 55 | 19 | 0.0 | 0.0 | 0.00 | 0.39 | 0.26 | 52 | 1013.9 |
| 20260506161017 | 55 | 14 | 0.0 | 0.0 | 0.00 | 0.39 | 0.26 | 52 | 1013.9 |
| 20260506160520 | 55 | 360 | 0.0 | 0.0 | 0.00 | 0.39 | 0.26 | 51 | 1014.1 |
| 20260506160022 | 54 | 23 | 0.0 | 0.0 | 0.00 | 0.39 | 0.26 | 54 | 1014.2 |
| 20260506155517 | 54 | 360 | 0.0 | 1.0 | 0.00 | 0.39 | 0.26 | 52 | 1014.2 |
| 20260506155016 | 54 | 18 | 0.0 | 1.0 | 0.00 | 0.39 | 0.26 | 52 | 1014.1 |
| 20260506154517 | 54 | 5 | 0.0 | 1.0 | 0.00 | 0.39 | 0.26 | 53 | 1013.8 |
| 20260506154019 | 54 | 348 | 0.0 | 1.0 | 0.00 | 0.39 | 0.26 | 56 | 1013.7 |
| 20260506153514 | 53 | 31 | 0.0 | 0.0 | 0.00 | 0.39 | 0.26 | 55 | 1013.6 |
| 20260506153013 | 53 | 9 | 0.0 | 0.0 | 0.00 | 0.39 | 0.26 | 54 | 1013.7 |
| 20260506152513 | 53 | 10 | 0.0 | 0.0 | 0.00 | 0.39 | 0.26 | 56 | 1013.7 |
| 20260506152013 | 53 | 39 | 0.0 | 0.0 | 0.00 | 0.39 | 0.26 | 58 | 1013.7 |
| 20260506151511 | 52 | 15 | 0.0 | 1.0 | 0.00 | 0.39 | 0.26 | 57 | 1013.4 |
| 20260506151010 | 52 | 25 | 0.0 | 1.0 | 0.00 | 0.39 | 0.26 | 57 | 1013.3 |
| 20260506150510 | 51 | 5 | 0.0 | 0.0 | 0.00 | 0.39 | 0.26 | 57 | 1013.2 |
| 20260506150008 | 51 | 31 | 0.0 | 0.0 | 0.00 | 0.39 | 0.26 | 58 | 1013.2 |
| 20260506145508 | 51 | 5 | 0.0 | 0.0 | 0.00 | 0.39 | 0.26 | 59 | 1013.0 |
| 20260506145009 | 51 | 5 | 0.0 | 0.0 | 0.00 | 0.39 | 0.26 | 59 | 1013.1 |
| 20260506144508 | 51 | 9 | 0.0 | 1.0 | 0.00 | 0.39 | 0.26 | 60 | 1012.9 |
| 20260506144006 | 50 | 30 | 0.0 | 1.0 | 0.00 | 0.39 | 0.26 | 60 | 1012.8 |
| 20260506143506 | 50 | 11 | 0.0 | 0.0 | 0.00 | 0.39 | 0.26 | 60 | 1012.9 |
| 20260506143014 | 50 | 5 | 0.0 | 0.0 | 0.00 | 0.39 | 0.26 | 60 | 1013.0 |
| 20260506142506 | 49 | 355 | 0.0 | 0.0 | 0.00 | 0.39 | 0.26 | 61 | 1013.1 |
| 20260506142005 | 49 | 360 | 0.0 | 1.0 | 0.00 | 0.39 | 0.26 | 62 | 1013.1 |
| 20260506141506 | 49 | 9 | 0.0 | 0.0 | 0.00 | 0.39 | 0.26 | 62 | 1012.9 |
| 20260506141006 | 48 | 23 | 0.0 | 0.0 | 0.00 | 0.39 | 0.26 | 62 | 1012.9 |
| 20260506140507 | 48 | 347 | 0.0 | 0.0 | 0.00 | 0.39 | 0.26 | 62 | 1013.0 |
| 20260506140005 | 48 | 14 | 0.0 | 0.0 | 0.00 | 0.39 | 0.26 | 62 | 1013.1 |
| 20260506135504 | 48 | 16 | 0.0 | 0.0 | 0.00 | 0.39 | 0.26 | 62 | 1012.9 |
| 20260506135003 | 48 | 29 | 0.0 | 0.0 | 0.00 | 0.39 | 0.26 | 62 | 1012.8 |
| 20260506134504 | 47 | 20 | 0.0 | 0.0 | 0.00 | 0.39 | 0.26 | 63 | 1012.8 |
| 20260506134002 | 47 | 5 | 0.0 | 0.0 | 0.00 | 0.39 | 0.26 | 63 | 1012.7 |
| 20260506133503 | 47 | 11 | 0.0 | 0.0 | 0.00 | 0.39 | 0.26 | 63 | 1012.9 |
| 20260506133002 | 46 | 355 | 0.0 | 0.0 | 0.00 | 0.39 | 0.26 | 63 | 1012.9 |
| 20260506132503 | 46 | 13 | 0.0 | 0.0 | 0.00 | 0.39 | 0.26 | 63 | 1012.6 |
| 20260506132100 | 46 | 22 | 0.0 | 0.0 | 0.00 | 0.39 | 0.26 | 63 | 1012.6 |
| 20260506131600 | 46 | 17 | 0.0 | 1.0 | 0.00 | 0.39 | 0.26 | 64 | 1012.4 |
| 20260506131059 | 46 | 23 | 0.0 | 1.0 | 0.00 | 0.39 | 0.26 | 63 | 1012.2 |
| 20260506130558 | 46 | 22 | 0.0 | 0.0 | 0.00 | 0.39 | 0.26 | 64 | 1012.0 |
| 20260506125558 | 46 | 17 | 0.0 | 1.0 | 0.00 | 0.39 | 0.26 | 64 | 1011.9 |
| 20260506125057 | 46 | 14 | 0.0 | 1.0 | 0.00 | 0.39 | 0.26 | 64 | 1012.2 |
| 20260506124600 | 46 | 13 | 0.0 | 0.0 | 0.00 | 0.39 | 0.26 | 64 | 1012.3 |
| 20260506124058 | 46 | 11 | 0.0 | 0.0 | 0.00 | 0.39 | 0.26 | 64 | 1012.0 |
| 20260506123557 | 46 | 11 | 0.0 | 0.0 | 0.00 | 0.39 | 0.26 | 64 | 1012.0 |
| 20260506123056 | 46 | 9 | 0.0 | 0.0 | 0.00 | 0.39 | 0.26 | 64 | 1012.0 |
| 20260506122556 | 46 | 19 | 0.0 | 0.0 | 0.00 | 0.39 | 0.26 | 64 | 1011.9 |
| 20260506122054 | 45 | 18 | 0.0 | 0.0 | 0.00 | 0.39 | 0.26 | 64 | 1012.1 |
| 20260506121604 | 45 | 13 | 0.0 | 0.0 | 0.00 | 0.39 | 0.26 | 64 | 1012.1 |
| 20260506121053 | 45 | 9 | 0.0 | 0.0 | 0.00 | 0.39 | 0.26 | 64 | 1011.9 |
| 20260506120553 | 45 | 9 | 0.0 | 0.0 | 0.00 | 0.39 | 0.26 | 64 | 1011.8 |
| 20260506120152 | 45 | 11 | 0.0 | 0.0 | 0.00 | 0.39 | 0.26 | 64 | 1011.7 |
| 20260506115552 | 45 | 360 | 0.0 | 0.0 | 0.00 | 0.39 | 0.26 | 64 | 1011.5 |
| 20260506115051 | 45 | 15 | 0.0 | 0.0 | 0.00 | 0.39 | 0.26 | 64 | 1011.4 |
| 20260506114606 | 46 | 11 | 0.0 | 0.0 | 0.00 | 0.39 | 0.26 | 64 | 1011.6 |
| 20260506114050 | 46 | 360 | 0.0 | 0.0 | 0.00 | 0.39 | 0.26 | 64 | 1011.7 |
| 20260506113549 | 45 | 9 | 0.0 | 0.0 | 0.00 | 0.39 | 0.26 | 64 | 1011.5 |
| 20260506113047 | 46 | 11 | 0.0 | 0.0 | 0.00 | 0.39 | 0.26 | 64 | 1011.2 |
| 20260506112546 | 46 | 5 | 0.0 | 0.0 | 0.00 | 0.39 | 0.26 | 64 | 1010.8 |
| 20260506112046 | 46 | 13 | 0.0 | 0.0 | 0.00 | 0.39 | 0.26 | 64 | 1011.0 |
| 20260506111551 | 46 | 5 | 0.0 | 0.0 | 0.00 | 0.39 | 0.26 | 64 | 1010.8 |
| 20260506111045 | 46 | 5 | 0.0 | 0.0 | 0.00 | 0.39 | 0.26 | 64 | 1010.9 |
| 20260506110545 | 46 | 349 | 0.0 | 0.0 | 0.00 | 0.39 | 0.26 | 64 | 1011.0 |
| 20260506110043 | 46 | 5 | 0.0 | 0.0 | 0.00 | 0.39 | 0.26 | 64 | 1010.8 |
| 20260506105544 | 46 | 5 | 0.0 | 0.0 | 0.00 | 0.39 | 0.26 | 65 | 1010.5 |
| 20260506105041 | 46 | 15 | 0.0 | 0.0 | 0.00 | 0.39 | 0.26 | 65 | 1010.3 |
| 20260506104543 | 47 | 355 | 0.0 | 0.0 | 0.00 | 0.39 | 0.26 | 65 | 1010.3 |
| 20260506104039 | 47 | 14 | 0.0 | 0.0 | 0.00 | 0.39 | 0.26 | 65 | 1010.1 |
| 20260506103538 | 47 | 360 | 0.0 | 0.0 | 0.00 | 0.39 | 0.26 | 66 | 1010.2 |
| 20260506103037 | 47 | 5 | 0.0 | 0.0 | 0.00 | 0.39 | 0.26 | 66 | 1009.9 |
| 20260506102537 | 47 | 350 | 0.0 | 0.0 | 0.00 | 0.39 | 0.26 | 66 | 1009.9 |
| 20260506102036 | 47 | 9 | 0.0 | 0.0 | 0.00 | 0.39 | 0.26 | 67 | 1010.0 |
| 20260506101537 | 47 | 360 | 0.0 | 0.0 | 0.00 | 0.39 | 0.26 | 68 | 1009.9 |
| 20260506101034 | 48 | 5 | 0.0 | 0.0 | 0.00 | 0.39 | 0.26 | 69 | 1009.6 |
| 20260506100533 | 48 | 19 | 0.0 | 0.0 | 0.00 | 0.39 | 0.26 | 71 | 1009.4 |
| 20260506100038 | 48 | 360 | 0.0 | 0.0 | 0.01 | 0.39 | 0.26 | 71 | 1009.7 |
| 20260506095533 | 48 | 355 | 0.0 | 0.0 | 0.01 | 0.39 | 0.26 | 72 | 1009.5 |
| 20260506095032 | 48 | 355 | 0.0 | 0.0 | 0.01 | 0.39 | 0.26 | 72 | 1009.5 |
| 20260506094531 | 48 | 5 | 0.0 | 0.0 | 0.01 | 0.39 | 0.26 | 72 | 1009.3 |
| 20260506094029 | 48 | 17 | 0.0 | 0.0 | 0.01 | 0.39 | 0.26 | 72 | 1009.0 |
| 20260506093532 | 49 | 19 | 0.0 | 0.0 | 0.02 | 0.39 | 0.26 | 72 | 1009.0 |
| 20260506093052 | 49 | 360 | 0.0 | 0.0 | 0.02 | 0.39 | 0.26 | 72 | 1008.9 |
| 20260506092528 | 49 | 25 | 0.0 | 0.0 | 0.02 | 0.39 | 0.26 | 72 | 1009.0 |
| 20260506092028 | 49 | 11 | 0.0 | 0.0 | 0.03 | 0.39 | 0.26 | 72 | 1008.8 |
| 20260506091529 | 49 | 14 | 0.0 | 0.0 | 0.04 | 0.39 | 0.26 | 72 | 1008.8 |
| 20260506091028 | 49 | 5 | 0.0 | 0.0 | 0.04 | 0.39 | 0.26 | 72 | 1009.0 |
| 20260506090527 | 49 | 5 | 0.0 | 0.0 | 0.05 | 0.39 | 0.26 | 72 | 1009.0 |
| 20260506090026 | 49 | 11 | 0.0 | 0.0 | 0.04 | 0.38 | 0.25 | 72 | 1009.1 |
| 20260506085525 | 49 | 5 | 0.0 | 0.0 | 0.04 | 0.38 | 0.25 | 72 | 1008.8 |
| 20260506085025 | 49 | 5 | 0.0 | 0.0 | 0.04 | 0.38 | 0.25 | 72 | 1008.7 |
| 20260506084524 | 49 | 18 | 0.0 | 0.0 | 0.04 | 0.38 | 0.25 | 72 | 1008.4 |
| 20260506084025 | 49 | 13 | 0.0 | 0.0 | 0.04 | 0.38 | 0.25 | 72 | 1008.8 |
| 20260506083523 | 49 | 360 | 0.0 | 0.0 | 0.03 | 0.37 | 0.24 | 72 | 1008.7 |
| 20260506083022 | 49 | 360 | 0.0 | 0.0 | 0.03 | 0.37 | 0.24 | 72 | 1008.6 |
| 20260506082524 | 49 | 32 | 0.0 | 0.0 | 0.02 | 0.36 | 0.23 | 72 | 1008.5 |
| 20260506082022 | 49 | 5 | 0.0 | 0.0 | 0.02 | 0.36 | 0.23 | 72 | 1008.7 |
| 20260506081522 | 49 | 355 | 0.0 | 0.0 | 0.01 | 0.35 | 0.22 | 72 | 1008.5 |
| 20260506081022 | 49 | 5 | 0.0 | 0.0 | 0.01 | 0.35 | 0.22 | 72 | 1008.3 |
| 20260506080521 | 49 | 360 | 0.0 | 0.0 | 0.00 | 0.34 | 0.21 | 72 | 1008.4 |
| 20260506073519 | 49 | 5 | 0.0 | 0.0 | 0.02 | 0.34 | 0.21 | 72 | 1007.4 |
| 20260506073016 | 49 | 355 | 0.0 | 0.0 | 0.02 | 0.34 | 0.21 | 72 | 1007.3 |
| 20260506072517 | 50 | 349 | 0.0 | 0.0 | 0.03 | 0.34 | 0.21 | 72 | 1007.5 |
| 20260506072018 | 50 | 10 | 0.0 | 0.0 | 0.05 | 0.34 | 0.21 | 72 | 1007.6 |
| 20260506071514 | 50 | 350 | 0.0 | 0.0 | 0.05 | 0.34 | 0.21 | 72 | 1007.5 |
| 20260506071012 | 50 | 355 | 0.0 | 0.0 | 0.06 | 0.34 | 0.21 | 72 | 1007.4 |
| 20260506070512 | 50 | 360 | 0.0 | 0.0 | 0.06 | 0.34 | 0.21 | 72 | 1007.2 |
| 20260506062506 | 51 | 10 | 0.0 | 0.0 | 0.05 | 0.30 | 0.17 | 71 | 1006.9 |
| 20260506062008 | 51 | 355 | 0.0 | 0.0 | 0.04 | 0.28 | 0.16 | 70 | 1006.8 |
| 20260506061507 | 51 | 348 | 0.0 | 0.0 | 0.04 | 0.28 | 0.16 | 70 | 1006.7 |
| 20260506061003 | 52 | 360 | 0.0 | 0.0 | 0.03 | 0.28 | 0.15 | 70 | 1006.6 |
| 20260506060503 | 53 | 360 | 0.0 | 0.0 | 0.03 | 0.28 | 0.15 | 69 | 1006.5 |
| 20260506051045 | 58 | 263 | 0.0 | 0.0 | 0.12 | 0.25 | 0.12 | 72 | 1005.6 |
| 20260506050545 | 58 | 263 | 0.0 | 1.0 | 0.12 | 0.25 | 0.12 | 72 | 1005.7 |
| 20260506045042 | 58 | 263 | 0.0 | 0.0 | 0.10 | 0.23 | 0.10 | 71 | 1005.8 |
| 20260506044542 | 58 | 263 | 0.0 | 0.0 | 0.10 | 0.23 | 0.10 | 71 | 1005.9 |
| 20260506044041 | 58 | 263 | 0.0 | 0.0 | 0.10 | 0.23 | 0.10 | 71 | 1005.9 |
| 20260506043541 | 58 | 263 | 0.0 | 0.0 | 0.09 | 0.22 | 0.09 | 71 | 1006.0 |
| 20260506043043 | 58 | 263 | 0.0 | 0.0 | 0.09 | 0.22 | 0.09 | 71 | 1006.0 |
| 20260506042541 | 58 | 263 | 0.0 | 0.0 | 0.07 | 0.20 | 0.07 | 71 | 1005.9 |
| 20260506042039 | 58 | 246 | 0.0 | 0.0 | 0.01 | 0.14 | 0.01 | 71 | 1006.0 |
| 20260506041542 | 58 | 225 | 0.0 | 0.0 | 0.01 | 0.13 | 0.00 | 71 | 1005.6 |
| 20260506041037 | 58 | 197 | 0.0 | 0.0 | 0.01 | 0.13 | 0.00 | 71 | 1005.4 |
| 20260506040541 | 58 | 188 | 0.0 | 0.0 | 0.01 | 0.13 | 0.00 | 71 | 1005.3 |
| 20260506040037 | 58 | 194 | 0.0 | 0.0 | 0.01 | 0.13 | 0.00 | 70 | 1005.4 |
| 20260506035536 | 58 | 173 | 0.0 | 0.0 | 0.01 | 0.13 | 0.13 | 70 | 1005.5 |
| 20260506035036 | 58 | 173 | 0.0 | 0.0 | 0.01 | 0.13 | 0.13 | 70 | 1005.6 |
| 20260506034535 | 58 | 171 | 0.0 | 0.0 | 0.01 | 0.13 | 0.13 | 70 | 1005.6 |
| 20260506034033 | 58 | 175 | 0.0 | 0.0 | 0.01 | 0.13 | 0.13 | 69 | 1005.7 |
| 20260506033533 | 58 | 171 | 0.0 | 0.0 | 0.01 | 0.13 | 0.13 | 69 | 1005.9 |
| 20260506033034 | 58 | 184 | 0.0 | 0.0 | 0.01 | 0.13 | 0.13 | 69 | 1005.8 |
| 20260506032532 | 58 | 185 | 0.0 | 0.0 | 0.03 | 0.13 | 0.13 | 69 | 1005.9 |
| 20260506032033 | 58 | 178 | 0.0 | 0.0 | 0.03 | 0.13 | 0.13 | 68 | 1005.9 |
| 20260506031533 | 58 | 179 | 0.0 | 0.0 | 0.02 | 0.12 | 0.12 | 68 | 1006.0 |
| 20260506031036 | 58 | 177 | 0.0 | 0.0 | 0.03 | 0.12 | 0.12 | 68 | 1006.1 |
| 20260506030533 | 58 | 188 | 0.0 | 0.0 | 0.04 | 0.12 | 0.12 | 67 | 1006.3 |
| 20260506030033 | 58 | 174 | 0.0 | 0.0 | 0.04 | 0.12 | 0.12 | 67 | 1006.4 |
| 20260506025533 | 59 | 197 | 0.0 | 0.0 | 0.04 | 0.12 | 0.12 | 67 | 1006.6 |
| 20260506025031 | 59 | 192 | 0.0 | 0.0 | 0.04 | 0.12 | 0.12 | 67 | 1006.6 |
| 20260506024531 | 59 | 198 | 0.0 | 0.0 | 0.04 | 0.12 | 0.12 | 66 | 1006.6 |
| 20260506024029 | 59 | 213 | 0.0 | 0.0 | 0.04 | 0.12 | 0.12 | 66 | 1006.6 |
| 20260506023533 | 59 | 171 | 0.0 | 0.0 | 0.04 | 0.12 | 0.12 | 66 | 1006.6 |
| 20260506023028 | 59 | 196 | 0.0 | 0.0 | 0.04 | 0.12 | 0.12 | 65 | 1006.7 |
| 20260506022528 | 59 | 199 | 0.0 | 0.0 | 0.03 | 0.10 | 0.10 | 65 | 1006.8 |
| 20260506022027 | 59 | 192 | 0.0 | 0.0 | 0.03 | 0.10 | 0.10 | 65 | 1006.9 |
| 20260506021529 | 59 | 207 | 0.0 | 0.0 | 0.03 | 0.10 | 0.10 | 65 | 1006.8 |
| 20260506021028 | 59 | 203 | 0.0 | 0.0 | 0.02 | 0.09 | 0.09 | 65 | 1006.9 |
| 20260506020526 | 59 | 215 | 0.0 | 0.0 | 0.01 | 0.08 | 0.08 | 65 | 1006.9 |
| 20260506020049 | 59 | 210 | 0.0 | 0.0 | 0.02 | 0.08 | 0.08 | 64 | 1006.9 |
| 20260506015525 | 59 | 205 | 0.0 | 0.0 | 0.02 | 0.08 | 0.08 | 64 | 1006.8 |
| 20260506015025 | 60 | 194 | 0.0 | 0.0 | 0.02 | 0.08 | 0.08 | 64 | 1006.8 |
| 20260506014525 | 60 | 202 | 0.0 | 0.0 | 0.03 | 0.08 | 0.08 | 64 | 1006.9 |
| 20260506014024 | 60 | 199 | 0.0 | 0.0 | 0.03 | 0.08 | 0.08 | 64 | 1006.8 |
| 20260506013525 | 60 | 211 | 0.0 | 0.0 | 0.03 | 0.08 | 0.08 | 64 | 1006.8 |
| 20260506013023 | 61 | 229 | 0.0 | 0.0 | 0.03 | 0.08 | 0.08 | 63 | 1006.8 |
| 20260506012523 | 61 | 224 | 0.0 | 0.0 | 0.02 | 0.07 | 0.07 | 63 | 1006.8 |
| 20260506012024 | 61 | 226 | 0.0 | 0.0 | 0.02 | 0.07 | 0.07 | 63 | 1006.8 |
| 20260506011526 | 61 | 222 | 0.0 | 0.0 | 0.02 | 0.07 | 0.07 | 63 | 1006.7 |
| 20260506011023 | 62 | 186 | 0.0 | 0.0 | 0.02 | 0.07 | 0.07 | 63 | 1006.6 |
| 20260506010523 | 62 | 219 | 0.0 | 0.0 | 0.02 | 0.07 | 0.07 | 63 | 1006.5 |
| 20260506010028 | 62 | 206 | 0.0 | 0.0 | 0.01 | 0.06 | 0.06 | 63 | 1006.7 |
| 20260506005523 | 61 | 265 | 0.0 | 0.0 | 0.01 | 0.06 | 0.06 | 63 | 1006.6 |
| 20260506005022 | 61 | 307 | 0.0 | 0.0 | 0.01 | 0.06 | 0.06 | 63 | 1006.4 |
| 20260506004525 | 61 | 307 | 0.0 | 0.0 | 0.00 | 0.05 | 0.05 | 63 | 1006.3 |
| 20260506004025 | 61 | 307 | 0.0 | 0.0 | 0.00 | 0.05 | 0.05 | 63 | 1006.3 |
| 20260506003525 | 62 | 307 | 0.0 | 0.0 | 0.00 | 0.05 | 0.05 | 63 | 1006.2 |
| 20260506003021 | 62 | 307 | 0.0 | 0.0 | 0.00 | 0.05 | 0.05 | 63 | 1006.3 |
| 20260506002521 | 62 | 307 | 0.0 | 0.0 | 0.01 | 0.05 | 0.05 | 62 | 1006.2 |
| 20260506002022 | 62 | 307 | 0.0 | 0.0 | 0.01 | 0.05 | 0.05 | 62 | 1006.1 |
| 20260506001521 | 62 | 307 | 0.0 | 0.0 | 0.02 | 0.05 | 0.05 | 62 | 1006.2 |
| 20260506001021 | 62 | 307 | 0.0 | 0.0 | 0.02 | 0.05 | 0.05 | 62 | 1006.1 |
| 20260506000520 | 62 | 307 | 0.0 | 0.0 | 0.02 | 0.05 | 0.05 | 62 | 1006.1 |
| 20260506000034 | 62 | 307 | 0.0 | 0.0 | 0.02 | 0.05 | 0.05 | 62 | 1006.2 |
| 20260505235520 | 62 | 275 | 0.0 | 0.0 | 0.02 | 0.05 | 0.05 | 62 | 1006.4 |
| 20260505235020 | 62 | 275 | 0.0 | 0.0 | 0.03 | 0.05 | 0.05 | 62 | 1006.2 |
| 20260505234521 | 62 | 275 | 0.0 | 0.0 | 0.04 | 0.05 | 0.05 | 62 | 1006.3 |
| 20260505234018 | 62 | 275 | 0.0 | 0.0 | 0.04 | 0.05 | 0.05 | 62 | 1006.3 |
| 20260505233519 | 62 | 275 | 0.0 | 0.0 | 0.04 | 0.05 | 0.05 | 62 | 1006.2 |
| 20260505233018 | 62 | 275 | 0.0 | 0.0 | 0.04 | 0.05 | 0.05 | 62 | 1006.2 |
| 20260505232520 | 62 | 275 | 0.0 | 0.0 | 0.03 | 0.04 | 0.04 | 62 | 1006.2 |
| 20260505232019 | 62 | 275 | 0.0 | 0.0 | 0.03 | 0.04 | 0.04 | 62 | 1006.2 |
| 20260505231519 | 62 | 275 | 0.0 | 0.0 | 0.02 | 0.03 | 0.03 | 62 | 1006.4 |
| 20260505231018 | 62 | 275 | 0.0 | 0.0 | 0.02 | 0.03 | 0.03 | 63 | 1006.6 |
| 20260505230517 | 64 | 246 | 0.0 | 0.0 | 0.02 | 0.03 | 0.03 | 62 | 1006.4 |
| 20260505230030 | 65 | 237 | 0.0 | 0.0 | 0.02 | 0.03 | 0.03 | 58 | 1006.2 |
| 20260505225518 | 65 | 238 | 0.0 | 0.0 | 0.02 | 0.03 | 0.03 | 58 | 1006.2 |
| 20260505225018 | 65 | 238 | 0.0 | 0.0 | 0.01 | 0.02 | 0.02 | 57 | 1006.5 |
| 20260505224517 | 65 | 238 | 0.0 | 0.0 | 0.00 | 0.01 | 0.01 | 57 | 1006.6 |
| 20260505224015 | 66 | 238 | 0.0 | 0.0 | 0.00 | 0.01 | 0.01 | 56 | 1006.5 |
| 20260505223516 | 66 | 209 | 0.0 | 0.0 | 0.01 | 0.01 | 0.01 | 55 | 1006.4 |
| 20260505223015 | 67 | 229 | 0.0 | 0.0 | 0.01 | 0.01 | 0.01 | 53 | 1006.5 |
| 20260505222518 | 67 | 208 | 0.0 | 0.0 | 0.01 | 0.01 | 0.01 | 52 | 1006.4 |
| 20260505222016 | 67 | 207 | 0.0 | 0.0 | 0.01 | 0.01 | 0.01 | 51 | 1006.2 |
| 20260505221515 | 67 | 203 | 0.0 | 0.0 | 0.01 | 0.01 | 0.01 | 51 | 1006.1 |
| 20260505221015 | 67 | 186 | 0.0 | 0.0 | 0.01 | 0.01 | 0.01 | 50 | 1006.4 |